Location: Richmond
(37.5536°N, 77.4606°W)
Time: 16:55:38
(UTC-04:00)

ISS - Visible Passes

Search period start: 27 March 2015 00:00
Search period end: 06 April 2015 00:00
Orbit: 396 x 406 km, 51.6° (Epoch: 27 March)

Date Brightness Start Highest point End Pass type
(mag) Time Alt. Az. Time Alt. Az. Time Alt. Az.
27 Mar -0.2 05:03:45 10° N 05:04:19 10° NNE 05:04:57 10° NNE visible
28 Mar -1.1 05:45:16 10° NNW 05:47:58 24° NNE 05:50:41 10° E visible
29 Mar -0.6 04:53:33 14° N 04:54:23 16° NNE 04:56:28 10° ENE visible
29 Mar -3.4 06:27:55 10° NW 06:31:08 76° SW 06:34:20 10° SE visible
30 Mar -2.5 05:35:22 16° NW 05:37:44 50° NE 05:40:52 10° ESE visible
31 Mar -1.1 04:44:47 25° NE 04:44:47 25° NE 04:47:01 10° E visible
31 Mar -2.4 06:17:44 10° WNW 06:20:35 28° SW 06:23:23 10° SSE visible
01 Apr -3.5 05:27:08 63° SW 05:27:12 63° SW 05:30:23 10° SE visible
02 Apr -1.3 06:09:48 12° SW 06:09:48 12° SW 06:10:56 10° SSW visible
02 Apr -2.1 21:07:57 10° SSW 21:09:49 30° SSW 21:09:49 30° SSW visible
03 Apr -2.1 20:15:01 10° S 20:17:41 24° SE 20:19:59 12° E visible
03 Apr -0.9 21:51:02 10° W 21:52:39 22° WNW 21:52:39 22° WNW visible
04 Apr -2.9 20:57:07 10° WSW 21:00:20 60° NW 21:02:27 20° NE visible
05 Apr -3.3 20:03:32 10° SW 20:06:45 61° SE 20:09:59 10° ENE visible
05 Apr -0.7 21:41:06 10° WNW 21:43:25 18° NNW 21:44:32 15° N visible
